BEIDOU-2 G8

Last updated on Aug. 15, 2020, 5:34 a.m. UTC

1 44231U 19027A   20227.52636000 -.00000245  00000-0  00000-0 0  9990
2 44231   0.8573 298.8871 0007214 267.9420  90.5300  1.00276593  4695
UTC
Height (km)
Latitude
Longitude
Inclination
Orbital Period
UTC large
Height (km)
Speed (km/s)
/
Latitude / Longitude
Inclination (degrees)
Orbital Period (minutes)
Azimuth
Elevation
Range (km)
Doppler Factor
iOS Compass Heading
iOS Angle

Next 30 passes for location: Hong Kong

Rise time Rise Azimuth (degrees) Set time Set Azimuth (degrees) Duration Max altitude (degrees)

No matching passes for this satellites